Time,TemperatureF,DewpointF,PressureIn,WindDirection,WindDirectionDegrees,WindSpeedMPH,WindSpeedGustMPH,Humidity,HourlyPrecipIn,Conditions,Clouds,dailyrainin,SoftwareType,DateUTC
2013-04-21 00:23:00,45.0,-99.9,30.31,NNW,332,14.0,19.0,-999,-99.99,,,-99.99,,2013-04-21 04:23:00,
2013-04-21 00:33:00,45.0,-99.9,30.31,NNW,332,14.0,19.0,-999,-99.99,,,-99.99,,2013-04-21 04:33:00,
2013-04-21 00:43:00,45.0,-99.9,30.31,NNW,332,14.0,19.0,-999,-99.99,,,-99.99,,2013-04-21 04:43:00,
2013-04-21 00:52:00,42.0,-99.9,30.34,NNW,332,7.0,21.0,-999,-99.99,,,-99.99,,2013-04-21 04:52:00,
2013-04-21 01:22:00,42.0,-99.9,30.34,NNW,332,7.0,21.0,-999,-99.99,,,-99.99,,2013-04-21 05:22:00,
2013-04-21 01:32:00,42.0,-99.9,30.34,NNW,332,7.0,21.0,-999,-99.99,,,-99.99,,2013-04-21 05:32:00,
2013-04-21 01:43:00,42.0,-99.9,30.34,NNW,332,7.0,21.0,-999,-99.99,,,-99.99,,2013-04-21 05:43:00,
2013-04-21 01:52:00,40.0,-99.9,30.36,NNW,328,8.0,12.0,-999,-99.99,,,-99.99,,2013-04-21 05:52:00,
2013-04-21 02:22:00,40.0,-99.9,30.36,NNW,328,8.0,12.0,-999,-99.99,,,-99.99,,2013-04-21 06:22:00,
2013-04-21 02:32:00,40.0,-99.9,30.36,NNW,328,8.0,12.0,-999,-99.99,,,-99.99,,2013-04-21 06:32:00,
2013-04-21 02:42:00,40.0,-99.9,30.36,NNW,328,8.0,12.0,-999,-99.99,,,-99.99,,2013-04-21 06:42:00,
2013-04-21 02:52:00,39.0,-99.9,30.39,NNW,334,-999.0,11.0,-999,-99.99,,,-99.99,,2013-04-21 06:52:00,
2013-04-21 03:22:00,39.0,-99.9,30.39,NNW,334,-999.0,11.0,-999,-99.99,,,-99.99,,2013-04-21 07:22:00,
2013-04-21 03:32:00,39.0,-99.9,30.39,NNW,334,-999.0,11.0,-999,-99.99,,,-99.99,,2013-04-21 07:32:00,
2013-04-21 03:42:00,39.0,-99.9,30.39,NNW,334,-999.0,11.0,-999,-99.99,,,-99.99,,2013-04-21 07:42:00,
2013-04-21 03:52:00,38.0,-99.9,30.41,NNE,27,-999.0,7.0,-999,-99.99,,,-99.99,,2013-04-21 07:52:00,
2013-04-21 04:22:00,38.0,-99.9,30.41,NNE,27,-999.0,7.0,-999,-99.99,,,-99.99,,2013-04-21 08:22:00,
2013-04-21 04:32:00,38.0,-99.9,30.41,NNE,27,-999.0,7.0,-999,-99.99,,,-99.99,,2013-04-21 08:32:00,
2013-04-21 04:42:00,38.0,-99.9,30.41,NNE,27,-999.0,7.0,-999,-99.99,,,-99.99,,2013-04-21 08:42:00,
2013-04-21 04:52:00,37.0,-99.9,30.43,NW,313,-999.0,10.0,-999,-99.99,,,-99.99,,2013-04-21 08:52:00,
2013-04-21 05:22:00,37.0,-99.9,30.43,NW,313,-999.0,10.0,-999,-99.99,,,-99.99,,2013-04-21 09:22:00,
2013-04-21 05:33:00,37.0,-99.9,30.43,NW,313,-999.0,10.0,-999,-99.99,,,-99.99,,2013-04-21 09:33:00,
2013-04-21 05:43:00,37.0,-99.9,30.43,NW,313,-999.0,10.0,-999,-99.99,,,-99.99,,2013-04-21 09:43:00,
2013-04-21 05:52:00,34.0,-99.9,30.46,NNE,17,-999.0,-999.0,-999,-99.99,,,-99.99,,2013-04-21 09:52:00,
2013-04-21 06:22:00,34.0,-99.9,30.46,NNE,17,-999.0,-999.0,-999,-99.99,,,-99.99,,2013-04-21 10:22:00,
2013-04-21 06:33:00,34.0,-99.9,30.46,NNE,17,-999.0,-999.0,-999,-99.99,,,-99.99,,2013-04-21 10:33:00,
2013-04-21 06:42:00,34.0,-99.9,30.46,NNE,17,-999.0,-999.0,-999,-99.99,,,-99.99,,2013-04-21 10:42:00,
2013-04-21 06:52:00,34.0,-99.9,30.49,NE,37,-999.0,5.0,-999,-99.99,,,-99.99,,2013-04-21 10:52:00,
2013-04-21 07:22:00,34.0,-99.9,30.49,NE,37,-999.0,5.0,-999,-99.99,,,-99.99,,2013-04-21 11:22:00,
2013-04-21 07:34:00,34.0,-99.9,30.49,NE,37,-999.0,5.0,-999,-99.99,,,-99.99,,2013-04-21 11:34:00,
2013-04-21 07:42:00,34.0,-99.9,30.49,NE,37,-999.0,5.0,-999,-99.99,,,-99.99,,2013-04-21 11:42:00,
2013-04-21 07:52:00,39.0,-99.9,30.53,NW,323,5.0,10.0,-999,-99.99,,,-99.99,,2013-04-21 11:52:00,
2013-04-21 08:22:00,39.0,-99.9,30.53,NW,323,5.0,10.0,-999,-99.99,,,-99.99,,2013-04-21 12:22:00,
2013-04-21 08:32:00,39.0,-99.9,30.53,NW,323,5.0,10.0,-999,-99.99,,,-99.99,,2013-04-21 12:32:00,
2013-04-21 08:42:00,39.0,-99.9,30.53,NW,323,5.0,10.0,-999,-99.99,,,-99.99,,2013-04-21 12:42:00,
2013-04-21 09:22:00,42.0,-99.9,30.54,North,354,5.0,14.0,-999,-99.99,,,-99.99,,2013-04-21 13:22:00,
2013-04-21 09:32:00,42.0,-99.9,30.54,North,354,5.0,14.0,-999,-99.99,,,-99.99,,2013-04-21 13:32:00,
2013-04-21 09:42:00,42.0,-99.9,30.54,North,354,5.0,14.0,-999,-99.99,,,-99.99,,2013-04-21 13:42:00,
2013-04-21 09:52:00,42.0,-99.9,30.54,North,354,5.0,14.0,-999,-99.99,,,-99.99,,2013-04-21 13:52:00,
2013-04-21 10:22:00,44.0,-99.9,30.56,North,-999,4.0,13.0,-999,-99.99,,,-99.99,,2013-04-21 14:22:00,
2013-04-21 10:32:00,44.0,-99.9,30.56,North,-999,4.0,13.0,-999,-99.99,,,-99.99,,2013-04-21 14:32:00,
2013-04-21 10:42:00,44.0,-99.9,30.56,North,-999,4.0,13.0,-999,-99.99,,,-99.99,,2013-04-21 14:42:00,
2013-04-21 10:52:00,48.0,-99.9,30.57,North,-999,7.0,9.0,-999,-99.99,,,-99.99,,2013-04-21 14:52:00,
2013-04-21 11:22:00,48.0,-99.9,30.57,North,-999,7.0,9.0,-999,-99.99,,,-99.99,,2013-04-21 15:22:00,
2013-04-21 11:33:00,48.0,-99.9,30.57,North,-999,7.0,9.0,-999,-99.99,,,-99.99,,2013-04-21 15:33:00,
2013-04-21 11:43:00,48.0,-99.9,30.57,North,-999,7.0,9.0,-999,-99.99,,,-99.99,,2013-04-21 15:43:00,
2013-04-21 11:53:00,49.0,-99.9,30.57,NNW,331,-999.0,9.0,-999,-99.99,,,-99.99,,2013-04-21 15:53:00,
2013-04-21 12:33:00,49.0,-99.9,30.57,NNW,331,-999.0,9.0,-999,-99.99,,,-99.99,,2013-04-21 16:33:00,
2013-04-21 12:42:00,49.0,-99.9,30.57,NNW,331,-999.0,9.0,-999,-99.99,,,-99.99,,2013-04-21 16:42:00,
2013-04-21 12:52:00,51.0,-99.9,30.56,NNE,13,-999.0,9.0,-999,-99.99,,,-99.99,,2013-04-21 16:52:00,
2013-04-21 13:23:00,51.0,-99.9,30.56,NNE,13,-999.0,9.0,-999,-99.99,,,-99.99,,2013-04-21 17:23:00,
2013-04-21 13:32:00,51.0,-99.9,30.56,NNE,13,-999.0,9.0,-999,-99.99,,,-99.99,,2013-04-21 17:32:00,
2013-04-21 13:42:00,51.0,-99.9,30.56,NNE,13,-999.0,9.0,-999,-99.99,,,-99.99,,2013-04-21 17:42:00,
2013-04-21 13:52:00,54.0,-99.9,30.55,North,359,-999.0,10.0,-999,-99.99,,,-99.99,,2013-04-21 17:52:00,
2013-04-21 14:22:00,54.0,-99.9,30.55,North,359,-999.0,10.0,-999,-99.99,,,-99.99,,2013-04-21 18:22:00,
2013-04-21 14:33:00,54.0,-99.9,30.55,North,359,-999.0,10.0,-999,-99.99,,,-99.99,,2013-04-21 18:33:00,
2013-04-21 14:42:00,54.0,-99.9,30.55,North,359,-999.0,10.0,-999,-99.99,,,-99.99,,2013-04-21 18:42:00,
2013-04-21 14:52:00,53.0,-99.9,30.55,North,3,5.0,8.0,-999,-99.99,,,-99.99,,2013-04-21 18:52:00,
2013-04-21 15:32:00,53.0,-99.9,30.55,North,3,5.0,8.0,-999,-99.99,,,-99.99,,2013-04-21 19:32:00,
2013-04-21 15:43:00,53.0,-99.9,30.55,North,3,5.0,8.0,-999,-99.99,,,-99.99,,2013-04-21 19:43:00,
2013-04-21 15:52:00,54.0,-99.9,30.54,ENE,62,-999.0,12.0,-999,-99.99,,,-99.99,,2013-04-21 19:52:00,
2013-04-21 16:22:00,54.0,-99.9,30.54,ENE,62,-999.0,12.0,-999,-99.99,,,-99.99,,2013-04-21 20:22:00,
2013-04-21 16:32:00,54.0,-99.9,30.54,ENE,62,-999.0,12.0,-999,-99.99,,,-99.99,,2013-04-21 20:32:00,
2013-04-21 16:42:00,54.0,-99.9,30.54,ENE,62,-999.0,12.0,-999,-99.99,,,-99.99,,2013-04-21 20:42:00,
2013-04-21 16:52:00,54.0,-99.9,30.53,NW,306,-999.0,10.0,-999,-99.99,,,-99.99,,2013-04-21 20:52:00,
2013-04-21 17:33:00,54.0,-99.9,30.53,NW,306,-999.0,10.0,-999,-99.99,,,-99.99,,2013-04-21 21:33:00,
2013-04-21 17:43:00,54.0,-99.9,30.53,NW,306,-999.0,10.0,-999,-99.99,,,-99.99,,2013-04-21 21:43:00,
2013-04-21 17:52:00,53.0,-99.9,30.55,NNE,30,-999.0,10.0,-999,-99.99,,,-99.99,,2013-04-21 21:52:00,
2013-04-21 18:22:00,53.0,-99.9,30.55,NNE,30,-999.0,10.0,-999,-99.99,,,-99.99,,2013-04-21 22:22:00,
2013-04-21 18:33:00,53.0,-99.9,30.55,NNE,30,-999.0,10.0,-999,-99.99,,,-99.99,,2013-04-21 22:33:00,
2013-04-21 18:43:00,53.0,-99.9,30.55,NNE,30,-999.0,10.0,-999,-99.99,,,-99.99,,2013-04-21 22:43:00,
2013-04-21 18:52:00,52.0,-99.9,30.55,NE,50,-999.0,9.0,-999,-99.99,,,-99.99,,2013-04-21 22:52:00,
2013-04-21 19:22:00,52.0,-99.9,30.55,NE,50,-999.0,9.0,-999,-99.99,,,-99.99,,2013-04-21 23:22:00,
2013-04-21 19:32:00,52.0,-99.9,30.55,NE,50,-999.0,9.0,-999,-99.99,,,-99.99,,2013-04-21 23:32:00,
2013-04-21 19:43:00,52.0,-99.9,30.55,NE,50,-999.0,9.0,-999,-99.99,,,-99.99,,2013-04-21 23:43:00,
2013-04-21 19:52:00,51.0,-99.9,30.57,NE,40,-999.0,5.0,-999,-99.99,,,-99.99,,2013-04-21 23:52:00,
2013-04-21 20:22:00,51.0,-99.9,30.57,NE,40,-999.0,5.0,-999,-99.99,,,-99.99,,2013-04-22 00:22:00,
2013-04-21 20:32:00,51.0,-99.9,30.57,NE,40,-999.0,5.0,-999,-99.99,,,-99.99,,2013-04-22 00:32:00,
2013-04-21 20:42:00,51.0,-99.9,30.57,NE,40,-999.0,5.0,-999,-99.99,,,-99.99,,2013-04-22 00:42:00,
2013-04-21 20:52:00,47.0,-99.9,30.59,ENE,77,-999.0,-999.0,-999,-99.99,,,-99.99,,2013-04-22 00:52:00,
2013-04-21 21:22:00,47.0,-99.9,30.59,ENE,77,-999.0,-999.0,-999,-99.99,,,-99.99,,2013-04-22 01:22:00,
2013-04-21 21:32:00,47.0,-99.9,30.59,ENE,77,-999.0,-999.0,-999,-99.99,,,-99.99,,2013-04-22 01:32:00,
2013-04-21 21:42:00,47.0,-99.9,30.59,ENE,77,-999.0,-999.0,-999,-99.99,,,-99.99,,2013-04-22 01:42:00,
2013-04-21 21:52:00,45.0,-99.9,30.61,ENE,77,-999.0,-999.0,-999,-99.99,,,-99.99,,2013-04-22 01:52:00,
2013-04-21 22:22:00,45.0,-99.9,30.61,ENE,77,-999.0,-999.0,-999,-99.99,,,-99.99,,2013-04-22 02:22:00,
2013-04-21 22:32:00,45.0,-99.9,30.61,ENE,77,-999.0,-999.0,-999,-99.99,,,-99.99,,2013-04-22 02:32:00,
2013-04-21 22:42:00,45.0,-99.9,30.61,ENE,77,-999.0,-999.0,-999,-99.99,,,-99.99,,2013-04-22 02:42:00,
2013-04-21 22:52:00,43.0,-99.9,30.61,ENE,77,-999.0,-999.0,-999,-99.99,,,-99.99,,2013-04-22 02:52:00,
2013-04-21 23:22:00,43.0,-99.9,30.61,ENE,77,-999.0,-999.0,-999,-99.99,,,-99.99,,2013-04-22 03:22:00,
2013-04-21 23:33:00,43.0,-99.9,30.61,ENE,77,-999.0,-999.0,-999,-99.99,,,-99.99,,2013-04-22 03:33:00,
2013-04-21 23:43:00,43.0,-99.9,30.61,ENE,77,-999.0,-999.0,-999,-99.99,,,-99.99,,2013-04-22 03:43:00,
2013-04-21 23:52:00,42.0,-99.9,30.62,ENE,77,-999.0,-999.0,-999,-99.99,,,-99.99,,2013-04-22 03:52:00,